User: anonymous   Login
Location: Bothwell
(42.3833°S, 147.0000°E)
Time: 01:55:27
(UTC+11:00)
Language:

ISS - Orbit

View from above orbital plane
View from above orbital plane
View from above satellite
View from above satellite

Ground track
Ground track

The orbit data is extracted from the following two-line orbital elements,

1 25544U 98067A   24064.54440828  .00015102  00000-0  27573-3 0  9997
2 25544  51.6406 113.9915 0005868 325.1272 180.2567 15.49607833442322
Epoch (UTC): 04 March 2024 13:03:56
Eccentricity: 0.0005868
inclination: 51.6406°
perigee height: 414 km
apogee height: 422 km
right ascension of ascending node: 113.9915°
argument of perigee: 325.1272°
revolutions per day: 15.49607833
mean anomaly at epoch: 180.2567°
orbit number at epoch: 44232

The dashed part of the orbit path shows where the satellite is in the earth's shadow,  

DLR